This demonstration page uses our WeatherBlox Daily Observations layout. Learn more.

Left ArrowRight Arrow

44.89941, -97.11507

Hourly Observations for July 7, 2016

Temp ( °F °C ) Dew Point ( °F °C ) Humidity (%) Winds ( mph kmh ) Pressure ( in mb ) Visibility ( mi km ) Precip ( " mm )
12:04 am 00:04 Cloudy with Rain 65 18.3 60 15.6 84 84 ENE 23 37 29.68 1005 7 11 0.03 0.76
12:38 am 00:38 Cloudy 64 17.8 58 14.4 81 81 NW 9 15 29.80 1009 10 16 0.07 1.78
12:53 am 00:53 Cloudy 65 18.3 57 13.9 76 76 NW 14 22 29.82 1010 10 16 0.07 1.78
1:12 am 01:12 Cloudy with Rain 63 17.2 58 14.4 84 84 ENE 16 26 29.74 1007 5 8 0.02 0.51
1:23 am 01:23 Cloudy with Light Rain 63 17.2 57 13.9 81 81 E 12 19 29.71 1006 10 16 0.03 0.76
1:53 am 01:53 Clear 64 17.8 58 14.4 81 81 E 15 24 29.71 1006 10 16 0.03 0.76
2:53 am 02:53 Clear 64 17.8 56 13.3 75 75 E 6 9 29.72 1006 10 16 0.00 0.00
3:53 am 03:53 Clear 63 17.2 55 12.8 76 76 ENE 8 13 29.66 1004 10 16 0.00 0.00
4:53 am 04:53 Clear 62 16.7 56 13.3 80 80 SSE 5 7 29.70 1006 10 16 0.00 0.00
5:53 am 05:53 Sunny 61 16.1 56 13.3 84 84 Calm 29.75 1007 10 16 0.00 0.00
6:53 am 06:53 Sunny 60 15.6 57 13.9 90 90 Calm 29.75 1007 10 16 0.00 0.00
7:53 am 07:53 Sunny 64 17.8 58 14.4 81 81 N 7 11 29.75 1008 10 16 0.00 0.00
8:53 am 08:53 Sunny 66 18.9 59 15 78 78 N 5 7 29.76 1008 10 16 0.00 0.00
9:53 am 09:53 Sunny 69 20.6 59 15 70 70 Calm 29.77 1008 10 16 0.00 0.00
10:53 am 10:53 Sunny 71 21.7 60 15.6 68 68 SSW 5 7 29.77 1008 10 16 0.00 0.00
11:53 am 11:53 Mostly Cloudy 70 21.1 61 16.1 73 73 WNW 8 13 29.80 1009 10 16 0.00 0.00
12:53 pm 12:53 Mostly Cloudy 74 23.3 62 16.7 67 67 NW 12 19 29.80 1009 10 16 0.00 0.00
1:53 pm 13:53 Cloudy 71 21.7 61 16.1 71 71 NNW 10 17 29.80 1009 10 16 0.00 0.00
2:14 pm 14:14 Mostly Cloudy with Nearby Thunderstorms 71 21.7 61 16.1 71 71 WNW 13 20 29.83 1010 10 16 0.00 0.00
2:40 pm 14:40 Mostly Cloudy 72 22.2 62 16.7 71 71 NNW 15 24 29.80 1009 10 16 0.00 0.00
2:53 pm 14:53 Mostly Cloudy 71 21.7 61 16.1 71 71 N 14 22 29.82 1010 10 16 0.00 0.00
3:53 pm 15:53 Partly Cloudy 71 21.7 59 15 66 66 E 6 9 29.80 1009 10 16 0.00 0.00
4:53 pm 16:53 Mostly Cloudy 73 22.8 61 16.1 66 66 NW 9 15 29.82 1010 10 16 0.00 0.00
5:53 pm 17:53 Mostly Cloudy 72 22.2 60 15.6 66 66 W 15 24 29.83 1010 10 16 0.00 0.00
6:53 pm 18:53 Sunny 74 23.3 61 16.1 64 64 W 12 19 29.82 1010 10 16 0.00 0.00
7:53 pm 19:53 Mostly Sunny 74 23.3 62 16.7 67 67 W 13 20 29.82 1010 10 16 0.00 0.00
8:53 pm 20:53 Sunny 72 22.2 60 15.6 66 66 W 9 15 29.83 1010 10 16 0.00 0.00
9:53 pm 21:53 Clear 66 18.9 59 15 78 78 WSW 5 7 29.84 1010 10 16 0.00 0.00
10:53 pm 22:53 Clear 63 17.2 59 15 87 87 SW 8 13 29.84 1011 10 16 0.00 0.00
11:53 pm 23:53 Clear 63 17.2 59 15 87 87 WSW 8 13 29.84 1010 10 16 0.00 0.00

Powered by AerisWeather